Terminal Aerodrome Forecast
Issued by NWS

Home | Current Version | Previous Version | Text Only | Print | Product List | Glossary On
Versions: 1 2 3 4 5 6 7 8 9 10 11 12 13 14 15 16 17 18 19 20 21 22 23 24 25 26 27 28 29 30
000
FTUS46 KOTX 181136
TAFCOE
TAF
KCOE 181136Z 1812/1912 06006KT 3SM BR VCSH SCT002 SCT030 OVC035
     FM181400 17005KT 3SM BR OVC015
     FM182200 16005KT P6SM SCT025 OVC040
     FM190600 06008KT 6SM BR OVC015
      AMD LTD TO CLD AND VIS=

USA.gov is the U.S. government's official web portal to all federal, state and local government web resources and services.